This is the latest recevied weather packets stored in our database for station/object YO3FVR-WX. If no packets are shown the sender has not sent any weather packets the latest 10 day(s).
| Time | Temp. | Humidity | Pressure | Rain* | Wind** | Luminosity | Snow |
|---|---|---|---|---|---|---|---|
| 1787790065 | 20° C | 81% | 1013.4 hPa | 0 mm | - | - | - |
| 1787789435 | 20° C | 81% | 1013.4 hPa | 0 mm | - | - | - |
| 1787788835 | 20° C | 81% | 1013.2 hPa | 0 mm | - | - | - |
| 1787788205 | 20° C | 81% | 1012.9 hPa | 0 mm | - | - | - |
| 1787787575 | 20° C | 81% | 1013.1 hPa | 0 mm | - | - | - |
| 1787786945 | 20° C | 81% | 1013.1 hPa | 0 mm | - | - | - |
| 1787786345 | 20° C | 81% | 1013.3 hPa | 0 mm | - | - | - |
| 1787785715 | 20° C | 81% | 1013.4 hPa | 0 mm | - | - | - |
| 1787785115 | 20.56° C | 81% | 1013.4 hPa | 0 mm | - | - | - |
| 1787784485 | 20.56° C | 80% | 1013.4 hPa | 0 mm | - | - | - |
| 1787783885 | 20° C | 80% | 1013.4 hPa | 0 mm | - | - | - |
| 1787783255 | 20.56° C | 79% | 1013.5 hPa | 0 mm | - | - | - |
| 1787782655 | 20.56° C | 79% | 1013.5 hPa | 0 mm | - | - | - |
| 1787782025 | 20.56° C | 77% | 1013.6 hPa | 0 mm | - | - | - |
| 1787781395 | 21.11° C | 76% | 1013.6 hPa | 0 mm | - | - | - |
| 1787780795 | 21.67° C | 74% | 1013.6 hPa | 0 mm | - | - | - |
| 1787780195 | 21.67° C | 73% | 1013.8 hPa | 0 mm | - | - | - |
| 1787779565 | 21.67° C | 73% | 1013.8 hPa | 0 mm | - | - | - |
| 1787778935 | 21.67° C | 73% | 1013.6 hPa | 0 mm | - | - | - |
| 1787778335 | 21.67° C | 73% | 1013.7 hPa | 0 mm | - | - | - |
| 1787777735 | 21.67° C | 73% | 1013.6 hPa | 0 mm | - | - | - |
| 1787777105 | 21.67° C | 73% | 1013.5 hPa | 0 mm | - | - | - |
| 1787776475 | 21.67° C | 73% | 1013.2 hPa | 0 mm | - | - | - |
| 1787775845 | 22.22° C | 73% | 1013 hPa | 0 mm | - | - | - |
| 1787775215 | 22.22° C | 73% | 1013 hPa | 0 mm | - | - | - |
* Rain latest hour (hover to see other rain measurements)
** Current wind speed in m/s (hover to see current wind gust speed)